This demonstration page uses our WeatherBlox Daily Observations layout. Learn more.

40.92945, -100.16068

Hourly Observations for December 27, 2015

Temp ( °F °C ) Dew Point ( °F °C ) Humidity (%) Winds ( mph kmh ) Pressure ( in mb ) Visibility ( mi km ) Precip ( " mm )
12:15 am 00:15 Cloudy 21 -6 16 -9 80 80 NNW 15 24 30.62 1037 10 16.09344 0 0
12:35 am 00:35 Cloudy 21 -6 16 -9 80 80 NNW 13 20 30.62 1037 10 16.09344 0 0
12:55 am 00:55 Cloudy 21 -6 16 -9 80 80 NNW 16 26 30.62 1037 10 16.09344 0 0
1:15 am 01:15 Cloudy 21 -6 16 -9 80 80 NNW 15 24 30.62 1037 10 16.09344 0 0
1:35 am 01:35 Mostly Cloudy 18 -8 14 -10 86 86 NW 13 20 30.62 1037 10 16.09344 0 0
1:55 am 01:55 Clear 18 -8 12 -11 79 79 NW 12 19 30.62 1037 10 16.09344 0 0
2:15 am 02:15 Clear 16 -9 10 -12 79 79 NW 10 17 30.62 1037 10 16.09344 0 0
2:35 am 02:35 Clear 14 -10 10 -12 85 85 NNW 10 17 30.59 1036 10 16.09344 0 0
2:55 am 02:55 Clear 14 -10 10 -12 85 85 NNW 9 15 30.65 1038 10 16.09344 0 0
3:15 am 03:15 Clear 14 -10 10 -12 85 85 NW 8 13 30.65 1038 10 16.09344 0 0
3:35 am 03:35 Clear 14 -10 9 -13 79 79 NNW 10 17 30.65 1038 10 16.09344 0 0
3:55 am 03:55 Clear 14 -10 10 -12 85 85 NNW 10 17 30.65 1038 10 16.09344 0 0
4:15 am 04:15 Clear 14 -10 9 -13 79 79 N 5 7 30.68 1039 10 16.09344 0 0
4:35 am 04:35 Clear 12 -11 7 -14 79 79 N 5 7 30.68 1039 10 16.09344 0 0
4:55 am 04:55 Clear 10 -12 5 -15 79 79 NNW 9 15 30.68 1039 10 16.09344 0 0
5:15 am 05:15 Partly Cloudy 10 -12 7 -14 85 85 Calm 30.71 1040 10 16.09344 0 0
5:35 am 05:35 Clear 7 -14 3 -16 85 85 W 5 7 30.74 1041 10 16.09344 0 0
5:55 am 05:55 Clear 9 -13 5 -15 85 85 NW 7 11 30.74 1041 10 16.09344 0 0
6:15 am 06:15 Clear 9 -13 5 -15 85 85 NW 5 7 30.74 1041 10 16.09344 0 0
6:35 am 06:35 Clear 7 -14 3 -16 85 85 NW 8 13 30.74 1041 10 16.09344 0 0
6:55 am 06:55 Clear 7 -14 3 -16 85 85 NW 10 17 30.74 1041 10 16.09344 0 0
7:15 am 07:15 Clear 7 -14 3 -16 85 85 NW 5 7 30.74 1041 10 16.09344 0 0
7:35 am 07:35 Clear 7 -14 3 -16 85 85 NW 5 7 30.74 1041 10 16.09344 0 0
7:55 am 07:55 Clear 5 -15 1 -17 85 85 NW 9 15 30.71 1040 10 16.09344 0 0
8:15 am 08:15 Sunny 7 -14 3 -16 85 85 NW 9 15 30.71 1040 10 16.09344 0 0
8:35 am 08:35 Sunny 7 -14 5 -15 92 92 NW 7 11 30.71 1040 10 16.09344 0 0
8:55 am 08:55 Sunny 9 -13 5 -15 85 85 WNW 5 7 30.71 1040 10 16.09344 0 0
9:15 am 09:15 Sunny 9 -13 7 -14 92 92 WNW 3 6 30.71 1040 10 16.09344 0 0
9:35 am 09:35 Sunny 12 -11 9 -13 85 85 NW 7 11 30.71 1040 10 16.09344 0 0
9:55 am 09:55 Sunny 14 -10 9 -13 79 79 WNW 5 7 30.71 1040 10 16.09344 0 0
10:15 am 10:15 Sunny 16 -9 9 -13 73 73 NW 7 11 30.68 1039 10 16.09344 0 0
10:35 am 10:35 Sunny 16 -9 10 -12 79 79 NW 5 7 30.68 1039 10 16.09344 0 0
10:55 am 10:55 Sunny 19 -7 10 -12 68 68 NNW 8 13 30.68 1039 10 16.09344 0 0
11:15 am 11:15 Sunny 19 -7 10 -12 68 68 N 9 15 30.68 1039 10 16.09344 0 0
11:35 am 11:35 Sunny 21 -6 12 -11 68 68 NNW 9 15 30.65 1038 10 16.09344 0 0
11:55 am 11:55 Sunny 21 -6 12 -11 68 68 N 7 11 30.65 1038 10 16.09344 0 0
12:15 pm 12:15 Sunny 23 -5 12 -11 63 63 N 6 9 30.65 1038 10 16.09344 0 0
12:35 pm 12:35 Sunny 23 -5 14 -10 68 68 NNE 8 13 30.62 1037 10 16.09344 0 0
12:55 pm 12:55 Sunny 23 -5 12 -11 63 63 N 10 17 30.62 1037 10 16.09344 0 0
1:15 pm 13:15 Sunny 23 -5 12 -11 63 63 N 8 13 30.62 1037 10 16.09344 0 0
1:35 pm 13:35 Sunny 23 -5 12 -11 63 63 N 9 15 30.59 1036 10 16.09344 0 0
1:55 pm 13:55 Sunny 23 -5 14 -10 68 68 N 9 15 30.56 1035 10 16.09344 0 0
2:15 pm 14:15 Sunny 23 -5 14 -10 68 68 NNE 10 17 30.56 1035 10 16.09344 0 0
2:35 pm 14:35 Sunny 23 -5 14 -10 68 68 N 9 15 30.56 1035 10 16.09344 0 0
2:55 pm 14:55 Sunny 23 -5 14 -10 68 68 N 12 19 30.56 1035 10 16.09344 0 0
3:15 pm 15:15 Sunny 23 -5 14 -10 68 68 NNE 8 13 30.56 1035 10 16.09344 0 0
3:35 pm 15:35 Sunny 23 -5 14 -10 68 68 NNE 5 7 30.56 1035 10 16.09344 0 0
3:55 pm 15:55 Sunny 23 -5 14 -10 68 68 N 7 11 30.56 1035 10 16.09344 0 0
4:15 pm 16:15 Sunny 23 -5 16 -9 74 74 N 6 9 30.53 1034 10 16.09344 0 0
4:35 pm 16:35 Sunny 21 -6 16 -9 80 80 N 6 9 30.53 1034 10 16.09344 0 0
4:55 pm 16:55 Sunny 21 -6 14 -10 74 74 N 3 6 30.56 1035 10 16.09344 0 0
5:15 pm 17:15 Sunny 19 -7 14 -10 79 79 NNW 5 7 30.53 1034 10 16.09344 0 0
5:35 pm 17:35 Clear 19 -7 14 -10 79 79 Calm 30.53 1034 10 16.09344 0 0
5:55 pm 17:55 Clear 19 -7 12 -11 73 73 NNW 6 9 30.53 1034 10 16.09344 0 0
6:15 pm 18:15 Clear 18 -8 12 -11 79 79 WNW 3 6 30.56 1035 10 16.09344 0 0
6:35 pm 18:35 Clear 16 -9 12 -11 86 86 Calm 30.56 1035 10 16.09344 0 0
6:55 pm 18:55 Clear 18 -8 12 -11 79 79 NW 5 7 30.56 1035 10 16.09344 0 0
7:15 pm 19:15 Clear 14 -10 10 -12 85 85 Calm 30.56 1035 10 16.09344 0 0
7:35 pm 19:35 Clear 14 -10 12 -11 92 92 NW 3 6 30.56 1035 10 16.09344 0 0
7:55 pm 19:55 Clear 14 -10 12 -11 92 92 Calm 30.56 1035 10 16.09344 0 0
8:15 pm 20:15 Clear 14 -10 10 -12 85 85 NNW 3 6 30.56 1035 10 16.09344 0 0
8:35 pm 20:35 Clear 12 -11 9 -13 85 85 Calm 30.59 1036 10 16.09344 0 0
8:55 pm 20:55 Clear 14 -10 12 -11 92 92 Calm 30.56 1035 10 16.09344 0 0
9:15 pm 21:15 Clear 12 -11 10 -12 92 92 N 5 7 30.56 1035 10 16.09344 0 0
9:35 pm 21:35 Clear 14 -10 10 -12 85 85 NNW 3 6 30.53 1034 10 16.09344 0 0
9:55 pm 21:55 Clear 16 -9 12 -11 86 86 N 3 6 30.53 1034 10 16.09344 0 0
10:15 pm 22:15 Clear 14 -10 10 -12 85 85 N 5 7 30.5 1033 10 16.09344 0 0
10:35 pm 22:35 Clear 14 -10 10 -12 85 85 NNE 5 7 30.5 1033 10 16.09344 0 0
10:55 pm 22:55 Clear 14 -10 10 -12 85 85 NNE 6 9 30.5 1033 10 16.09344 0 0
11:15 pm 23:15 Clear 14 -10 10 -12 85 85 NNE 3 6 30.5 1033 10 16.09344 0 0
11:35 pm 23:35 Clear 14 -10 10 -12 85 85 N 5 7 30.5 1033 10 16.09344 0 0
11:55 pm 23:55 Clear 16 -9 12 -11 86 86 NNE 6 9 30.48 1032 10 16.09344 0 0

Powered by AerisWeather